Regional Weather Roundup
Issued by NWS

Home | Current Version | Previous Version | Graphics & Text | Print | Product List | Glossary Off
Versions: 1 2 3 4 5 6 7 8 9 10 11 12 13 14 15 16 17 18 19 20 21 22 23 24 25 26 27 28 29 30 31 32 33 34 35 36 37 38 39 40 41 42 43 44 45 46 47 48 49 50

000
ASUS43 KDMX 030807
RWRIA

WEATHER ROUNDUP FOR IOWA
NATIONAL WEATHER SERVICE DES MOINES IA
300 AM CDT WED JUN 03 2015

NOTE: "FAIR" INDICATES FEW OR NO CLOUDS BELOW 12,000 FEET WITH NO
SIGNIFICANT WEATHER AND/OR OBSTRUCTIONS TO VISIBILITY.

* - THESE STATIONS ARE NOT NWS STATIONS...THUS NOT UNDER NWS
QUALITY CONTROL.  THEY ALSO DO NOT REPORT WEATHER SUCH
AS PRECIPITATION OR FOG.

IAZ001>003-012>014-020>022-031>034-043>046-030900-
   NORTHWEST IOWA

CITY           SKY/WX    TMP DP  RH WIND       PRES   REMARKS
CARROLL *      CLOUDY    61  57  88 SE12      29.90F
CHEROKEE *     MOCLDY    63  59  88 S8        29.87F
DENISON *      CLOUDY    63  61  94 S12       29.87F
LE MARS *      CLEAR     64  59  82 S14       29.85F
ORANGE CITY *  CLEAR     61  55  82 S10G16    29.85F
SHELDON *      CLOUDY    63  63 100 S15       29.84F
SIOUX CITY     CLOUDY    64  57  78 SE9       29.84F
SPENCER        CLOUDY    64  57  78 S13       29.88F
STORM LAKE *   CLOUDY    61  57  88 S13       29.89F
$$

IAZ055>058-069>071-079>083-090>094-030900-
   SOUTHWEST IOWA

CITY           SKY/WX    TMP DP  RH WIND       PRES   REMARKS
ATLANTIC *     CLOUDY    63  57  82 S8        29.91F
AUDUBON *      PTCLDY    63  57  82 S9        29.92S
CLARINDA *     CLEAR     63  59  88 SE7       29.93F
COUNCIL BLFS *   N/A     63  63 100 SE13      29.88F
CRESTON *      MOCLDY    61  59  94 SE14      29.94F
HARLAN  *      PTCLDY    64  63  94 S13       29.92F
LAMONI         PTCLDY    62  56  80 SE9       29.96F
RED OAK *      CLOUDY    63  59  88 SE9       29.90F
SHENANDOAH *   PTCLDY    64  59  82 SE10      29.90F
$$

IAZ047>049-059>061-072>074-084-030900-
   CENTRAL IOWA

CITY           SKY/WX    TMP DP  RH WIND       PRES   REMARKS
AMES           CLOUDY    61  55  81 S13       29.94F
ANKENY *       CLEAR     61  57  88 S9        29.95F
CHARITON *     MOCLDY    59  57  94 S8        29.98S
DES MOINES     MOCLDY    61  56  83 S12       29.95F
GRINNELL*      PTCLDY    57  54  88 S7        30.00R
KNOXVILLE *    MOCLDY    59  55  88 SE7       29.97S
MARSHALLTOWN   CLEAR     59  55  87 S9        29.97F
PELLA *        PTCLDY    59  57  94 SE5       30.00S
PERRY *          N/A     61  55  82 SE14      29.92F
$$

IAZ004>006-015-016-023>025-035-036-030900-
   NORTH CENTRAL IOWA

CITY           SKY/WX    TMP DP  RH WIND       PRES   REMARKS
ALGONA *       CLOUDY    63  57  82 S17       29.91S
CLARION *      MOCLDY    63  54  72 S18       29.92F
ESTHERVILLE    CLOUDY    62  55  77 S18       29.88S
FORT DODGE *   MOCLDY    63  54  72 S9        29.92S
MASON CITY     PTCLDY    60  55  83 S13       29.95F
FOREST CITY *  CLEAR     59  54  82 S14       29.92F
IOWA FALLS *   CLOUDY    61  55  82 S12       29.96F
$$

IAZ007>011-017>019-026>030-037>042-050>054-066-030900-
   NORTHEAST IOWA

CITY           SKY/WX    TMP DP  RH WIND       PRES   REMARKS
CEDAR RAPIDS   MOCLDY    56  55  97 SE5       29.99F
CHARLES CITY * CLEAR     57  57 100 S9        29.97F
CLINTON *      MOCLDY    57  50  77 SE8       30.05F
DECORAH *      CLOUDY    57  54  88 S6        29.99R
DUBUQUE        PTCLDY    55  49  80 SE8       30.02F
MONTICELLO *   CLEAR     57  54  88 SE5       30.01F
OELWEIN *      CLEAR     57  54  88 S8        30.00S
WATERLOO       CLEAR     59  54  83 S9        29.97F
$$

IAZ064-065-067-068-078-030900-
   EAST CENTRAL IOWA

CITY           SKY/WX    TMP DP  RH WIND       PRES   REMARKS
DAVENPORT      PTCLDY    57  49  74 SE6       30.03S
IOWA CITY      MOCLDY    58  54  86 CALM      30.02F
MT. PLEASANT * PTCLDY    55  55 100 E3        30.01F
MUSCATINE *    CLEAR     57  54  88 CALM      30.02F
QUAD CITIES    PTCLDY    57  50  77 CALM      30.02S
$$

IAZ062-063-075>077-085>089-095>099-030900-
   SOUTHEAST IOWA

CITY           SKY/WX    TMP DP  RH WIND       PRES   REMARKS
BURLINGTON     CLEAR     59  54  83 SE6       30.01S
FAIRFIELD *    CLEAR     54  52  94 SE6       30.01S
FORT MADISON *   N/A     57  55  94 SE3       30.03R
KEOKUK *       CLEAR     57  57 100 S5        30.01S
OSKALOOSA *      N/A     55  54  94 SE7       30.00S
CENTERVILLE *  CLEAR     55  55 100 SE7       30.00F
OTTUMWA        MOCLDY    56  54  93 S6        29.99F
WASHINGTON *   CLEAR     54  52  94 SE3       30.03S
$$

ABBREVIATIONS USED IN REMARKS
   TC - TEMPERATURES IN CELSIUS
  WCI - WIND CHILL INDEX
   HX - HEAT INDEX
  VSB - VISIBILITY
$$



USA.gov is the U.S. government's official web portal to all federal, state and local government web resources and services.